Preview of NWS' New Version of Forecast
This preview is not operational and should not be used for support decisions.

Regional Weather Roundup (RWR)

Issued by Gray - Portland, ME (GYX)

                            
000
ASUS41 KGYX 241210
RWRGYX
WEATHER ROUNDUP FOR MAINE AND NEW HAMPSHIRE
NATIONAL WEATHER SERVICE GRAY ME
800 AM EDT WED APR 24 2019

MEZ002-005-006-010-012-015-018-020-021-024-026-027-029-241300-
MAINE
  
CITY           SKY/WX    TMP DP  RH WIND       PRES   REMARKS
PORTLAND       DRIZZLE   43  41  93 E6        29.71F FOG              
6HR MIN TEMP:  42; 6HR MAX TEMP:  43; 6HR PCP:  0.17;                

SANFORD        CLOUDY    43  42  97 NE5       29.70S FOG              
BAR HARBOR     CLOUDY    37  37 100 E3        29.76F                  
WISCASSET      CLOUDY    41  40  96 VRB3      29.74F FOG              
6HR MIN TEMP:  41; 6HR MAX TEMP:  42; 6HR PCP:  0.15;                

ROCKLAND       LGT RAIN  39  39 100 E8        29.74F FOG              
FRYEBURG       CLOUDY    42  41  96 CALM      29.70F FOG              
6HR MIN TEMP:  41; 6HR MAX TEMP:  42; 6HR PCP:  0.09;                

LEWISTONAUBURN LGT RAIN  41  40  96 E3        29.71F FOG              
AUGUSTA        CLOUDY    39  39 100 SE6       29.73F FOG              
6HR MIN TEMP:  38; 6HR MAX TEMP:  40; 6HR PCP:  0.09;                

WATERVILLE     LGT RAIN  39  38  96 CALM      29.71S FOG              
BANGOR         CLOUDY    38  36  92 E5        29.75F FOG              
6HR MIN TEMP:  37; 6HR MAX TEMP:  38; 6HR PCP:  0.05;                

GREENVILLE       N/A     32  31  96 SE13      29.67F                  
6HR MIN TEMP:  32; 6HR MAX TEMP:  34; 6HR PCP:  0.15;                

MILLINOCKET    LGT RAIN  35  33  92 E3        29.76S FOG              
6HR MIN TEMP:  34; 6HR MAX TEMP:  36; 6HR PCP:  0.08;                

HOULTON        CLOUDY    36  33  89 E5        29.74S                  
6HR MIN TEMP:  33; 6HR MAX TEMP:  36; 6HR PCP: TRACE;                

PRESQUE ISLE   LGT RAIN  34  32  92 N7        29.77R                  
6HR MIN TEMP:  33; 6HR MAX TEMP:  34; 6HR PCP: TRACE;                

FRENCHVILLE    CLOUDY    35  29  78 E9        29.75R                  
6HR MIN TEMP:  34; 6HR MAX TEMP:  35; 6HR PCP: TRACE;                

CARIBOU        CLOUDY    36  30  79 NE7       29.75S                  
6HR MIN TEMP:  34; 6HR MAX TEMP:  36; 6HR PCP: TRACE;                

$$

NHZ002-005-008-009-011-012-014-241300-
NEW HAMPSHIRE
  
CITY           SKY/WX    TMP DP  RH WIND       PRES   REMARKS
PORTSMOUTH     FOG       44  44  99 NE5       29.66F VSB 3/4          
ROCHESTER      CLOUDY    43  43 100 N3        29.68F FOG              
6HR MIN TEMP:  42; 6HR MAX TEMP:  43; 6HR PCP:  0.03;                

NASHUA         FOG       46  46 100 NW3       29.70S VSB 3/4          
MANCHESTER     FOG       45  44  97 N3        29.68S VSB 1            
6HR MIN TEMP:  45; 6HR MAX TEMP:  46; 6HR PCP:  0.01;                

CONCORD        CLOUDY    43  42  97 N3        29.68F FOG              
6HR MIN TEMP:  42; 6HR MAX TEMP:  43; 6HR PCP:  0.03;                

LACONIA        CLOUDY    42  41  96 NE3       29.69S                  
PLYMOUTH       CLOUDY    43  41  93 CALM      29.69F                  
BERLIN         CLOUDY    42  40  92 VRB5      29.65R                  
6HR MIN TEMP:  41; 6HR MAX TEMP:  43; 6HR PCP:  0.04;                

WHITEFIELD     CLOUDY    45  41  86 CALM      29.64R                  
6HR MIN TEMP:  45; 6HR MAX TEMP:  47; 6HR PCP:  0.02;                

JAFFREY        CLOUDY    48  47  96 CALM      29.68R                  
6HR MIN TEMP:  47; 6HR MAX TEMP:  49;                                

KEENE          CLOUDY    53  43  68 NW7       29.69R                  
LEBANON        CLOUDY    52  43  71 W10       29.66R                  
6HR MIN TEMP:  47; 6HR MAX TEMP:  52; 6HR PCP:  0.01;                

MT WASHINGTON  FOG       32  32 100 W37G43      N/A  VSB 0   WCI  16  
6HR MIN TEMP:  33; 6HR MAX TEMP:  38; 6HR PCP:  0.06;                

$$

VTZ005-007-008-241300-
VERMONT
  
CITY           SKY/WX    TMP DP  RH WIND       PRES   REMARKS
ST JOHNSBURY     N/A     48  45  89 MISG      29.62R                  
MONTPELIER     CLOUDY    49  37  63 SW8G20    29.67R                  
BURLINGTON     PTSUNNY   50  39  66 SW8       29.66R                  
$$

MAZ007-012-024-CTZ003-RIZ002-NYZ038-NYZ072-241300-
SOUTHERN NEW ENGLAND AND NY
  
CITY           SKY/WX    TMP DP  RH WIND       PRES   REMARKS
BOSTON         CLOUDY    54  49  83 SW10      29.67F                  
WORCESTER      CLOUDY    49  49 100 W6        29.68R FOG              
NANTUCKET      PTSUNNY   52  51  97 S14       29.70F                  
PROVIDENCE     FAIR      52  50  93 S3        29.67S                  
HARTFORD       PTSUNNY   58  47  66 NW17G25   29.70R                  
ALBANY         PTSUNNY   50  35  56 W21G30    29.79R                  
NEW YORK CITY  FAIR      61  48  62 NW22      29.72R                  
$$

ANZ081-ANZ082-ANZ150-NHZ014-MEZ023>029-241300-
COASTAL MARINE OBSERVATIONS
  
STATION/POSITION TIME  TEMP    WIND        PRES    WAVE
                       AIR SEA DIR/SP/G            HT/PER
                 (UTC) (F)     (DEG/KT/KT) (MB)    (FT/S)
ISLE OF SHOALS   1200   43     150/  4/  4 1004.5F
JEFFREYS LEDGE   1108      42                N/A     4/ 8
CASHES LEDGE BUO 1150   42 42                N/A     5/ 8
$$

.............KEY..............
   WCI - WIND CHILL
   TC  - TEMPERATURE IN CELSIUS
   VSB - VISIBILITY IN MILES
   HX  - HEAT INDEX
   FAIR- INDICATES FEW OR NO CLOUDS BELOW 12,000 FT, WITH NO 
         SIGNIFICANT WEATHER AND/OR OBSTRUCTIONS TO VISIBILITY.